This demonstration page uses our WeatherBlox Daily Observations layout. Learn more.

Left ArrowRight Arrow

Hourly Observations for July 27, 2022

Temp ( °F °C ) Dew Point ( °F °C ) Humidity (%) Winds ( mph kmh ) Pressure ( in mb ) Visibility ( mi km ) Precip ( " mm )
12:53 am 00:53 Partly Cloudy 91 32.8 68 20 47 47 S 17 28 29.92 1013 10 16 0.00 0.00
1:53 am 01:53 Partly Cloudy 89 31.7 70 21.1 53 53 S 9 15 29.93 1013 10 16 0.00 0.00
2:53 am 02:53 Partly Cloudy 88 31.1 71 21.7 57 57 S 16 26 29.93 1013 10 16 0.00 0.00
3:53 am 03:53 Partly Cloudy 86 30 71 21.7 61 61 S 9 15 29.92 1013 10 16 0.00 0.00
4:53 am 04:53 Mostly Clear 85 29.4 70 21.1 61 61 S 9 15 29.92 1013 10 16 0.00 0.00
5:53 am 05:53 Mostly Clear 84 28.9 70 21.1 63 63 S 14 22 29.92 1013 10 16 0.00 0.00
6:53 am 06:53 Mostly Sunny 83 28.3 69 20.6 63 63 S 10 17 29.93 1014 10 16 0.00 0.00
7:53 am 07:53 Mostly Sunny 83 28.3 69 20.6 63 63 S 8 13 29.95 1014 10 16 0.00 0.00
8:53 am 08:53 Mostly Sunny 86 30 68 20 55 55 SSW 8 13 29.96 1015 10 16 0.00 0.00
9:53 am 09:53 Mostly Sunny 89 31.7 67 19.4 48 48 SW 7 11 29.97 1015 10 16 0.00 0.00
10:53 am 10:53 Partly Cloudy 92 33.3 67 19.4 44 44 S 8 13 29.96 1015 10 16 0.00 0.00
11:53 am 11:53 Partly Cloudy 95 35 68 20 41 41 SSE 10 17 29.96 1015 10 16 0.00 0.00
12:53 pm 12:53 Mostly Sunny 96 35.6 69 20.6 41 41 SSE 7 11 29.95 1014 10 16 0.00 0.00
1:53 pm 13:53 Partly Cloudy 98 36.7 67 19.4 36 36 SW 10 17 29.93 1014 10 16 0.00 0.00
2:53 pm 14:53 Partly Cloudy 100 37.8 65 18.3 32 32 S 10 17 29.90 1013 10 16 0.00 0.00
3:53 pm 15:53 Partly Cloudy 100 37.8 63 17.2 30 30 S 12 19 29.89 1012 10 16 0.00 0.00
4:53 pm 16:53 Partly Cloudy 101 38.3 62 16.7 28 28 ESE 5 7 29.87 1011 10 16 0.00 0.00
5:53 pm 17:53 Partly Cloudy 100 37.8 63 17.2 30 30 SSE 9 15 29.86 1011 10 16 0.00 0.00
6:53 pm 18:53 Partly Cloudy 100 37.8 62 16.7 29 29 S 5 7 29.84 1010 10 16 0.00 0.00
7:53 pm 19:53 Partly Cloudy 99 37.2 61 16.1 29 29 SSE 12 19 29.83 1010 10 16 0.00 0.00
8:53 pm 20:53 Mostly Clear 97 36.1 62 16.7 32 32 S 9 15 29.85 1011 10 16 0.00 0.00
9:53 pm 21:53 Mostly Clear 96 35.6 62 16.7 32 32 S 9 15 29.86 1011 10 16 0.00 0.00
10:53 pm 22:53 Mostly Clear 94 34.4 63 17.2 36 36 SSE 12 19 29.88 1012 10 16 0.00 0.00
11:53 pm 23:53 Mostly Clear 92 33.3 68 20 46 46 S 13 20 29.90 1013 10 16 0.00 0.00

Powered by AerisWeather